Location: Kellogg
(38.0159°N, 90.0546°W)
Time: 19:01:46
(UTC+00:00)

S-56A Canister/Altair - Pass Details

Date: 13 September 2024
Orbit: 636 x 2487 km, 38.9° (Epoch: 04 October)

Event Time Altitude Azimuth Distance (km) Brightness Sun altitude
Rises 09:11:48 0° 277° (W) 5,387 - -28.6°
Reaches altitude 10° 09:17:06 10° 258° (WSW) 4,691 - -27.7°
Maximum altitude 09:24:09 16° 226° (SW) 4,464 - -26.5°
Exits shadow 09:31:40 10° 195° (SSW) 5,105 11.3 -25.2°
Drops below altitude 10° 09:31:49 10° 194° (SSW) 5,125 11.3 -25.1°
Sets 09:38:15 0° 176° (S) 6,127 11.9 -24.0°
